Location: �terpigny
(49.8910°N, 2.9249°E)
Time: 14:30:44
(UTC+00:00)

Cosmos 1908 - Pass Details

Date: 24 October 2021
Orbit: 509 x 528 km, 82.5° (Epoch: 27 November)

Event Time Altitude Azimuth Distance (km) Brightness Sun altitude
Rises 17:24:15 0° 192° (SSW) 2,648 7.1 -7.8°
Reaches altitude 10° 17:26:23 10° 193° (SSW) 1,761 6.2 -8.2°
Maximum altitude 17:30:15 78° 279° (W) 540 3.4 -8.8°
Drops below altitude 10° 17:34:08 10° 8° (N) 1,765 5.8 -9.4°
Sets 17:36:17 0° 9° (N) 2,654 6.6 -9.8°
